User: anonymous
Location: Killarney Provincial Park Observatory
(46.0124°N, 81.4000°W)
Time: 13:53:34
(UTC-04:00)
Language:

Iridium 22 - Orbit

View from above orbital plane
View from above orbital plane
View from above satellite
View from above satellite

Ground track
Ground track

The orbit data is extracted from the following two-line orbital elements,

1 24907U 97043E   14273.50599630  .00000311  00000-0  10384-3 0  9960
2 24907 086.3954 310.1111 0002316 107.7982 032.6627 14.34219207895835
Epoch (UTC): 30 September 2014 12:08:38
Eccentricity: 0.0002316
inclination: 86.3954°
perigee height: 776 km
apogee height: 779 km
right ascension of ascending node: 310.1111°
argument of perigee: 107.7982°
revolutions per day: 14.34219207
mean anomaly at epoch: 32.6627°
orbit number at epoch: 89583

The dashed part of the orbit path shows where the satellite is in the earth's shadow,  

DLR